Location: Drocourt
(49.0571°N, 1.7669°E)
Time: 14:11:36
(UTC+00:00)

Cosmos 1869 - Pass Details

Date: 09 February 2023
Orbit: 510 x 550 km, 82.5° (Epoch: 21 March)

Event Time Altitude Azimuth Distance (km) Brightness Sun altitude
Rises 18:01:34 0° 348° (NNW) 2,679 6.9 -10.1°
Reaches altitude 10° 18:03:43 10° 346° (NNW) 1,791 6.0 -10.4°
Maximum altitude 18:07:38 71° 263° (W) 572 3.6 -11.0°
Drops below altitude 10° 18:11:35 10° 179° (S) 1,802 6.1 -11.7°
Sets 18:13:44 0° 178° (S) 2,695 6.9 -12.0°
